Hovedside
METAR-TAF:

METAR-TAF

Lufthavner :

Pajala, Sverige

Pajala lufthavn

breddegrad: 67-14-44N, lengdegrad: 023-04-08E, høyde over havet: 165 m

Gjeldene værobservasjon

Denne rapporten ble laget for 21 minutter siden, klokken 04:20 UTC
Vind 4 kt fra Nordøst, skiftende mellom Nord og Øst
Temperatur -3°C
Luftfuktighet 86%
Trykk 1008 hPa
Sikt 10 km eller mer

METAR: ESUP 250420Z AUTO 05004KT 010V100 9999 OVC026/// M03/M05 Q1008

Tid: 06:41 (04:41 UTC)


TAF: fraværende

Værobservasjoner og værvarsel for over 4000 flyplasser (METAR- og TAF-rapporter).

Tilgjengelige stasjoner er representert av de røde og gule prikkene på kartet.

Hold musepekeren over prikken for å se navnet på stasjonen.

Klikk så for å se værobservasjoner og -varsler.

For å forandre kartet kan du klikke på den grønne knappen med svart kryss for å zoome inn, på den grønne knappen med strek for å zoome ut, eller på de grønne pilene for å se tilstøtende kart.


METAR-TAF: